THORAD AGENA D DEB, 4603

Orbit data source: Space-Track

THORAD AGENA D DEB, 4603 is space debris in SSO originally from a launch on Wed, 08 Apr 1970 UTC launched from the Air Force Western Test Range (AFWTR). Debris objects in space refer to the collection of defunct objects orbiting the Earth. Examples of debris include non-operational satellites, rocket bodies, and fragments generated from explosions, collisions, or faulty payload assembly.

Loading next visibility...
Identifier
4603, 1970-025F
Orbit
SSO
Country
Flag of USUS
Related business
Manufacturer
Unknown
Mission
Spacecraft
Bus & Motor
Unknown
Mass
Unknown
Launch date (UTC)
1970-04-08 (56 years ago)
Launch vehicle
Unknown
Launch site
Air Force Western Test Range (AFWTR)
Object type
Payload
Rocket body
Debris
Shape & HBR
Unknown shape, 0.2 m
Radar Cross Section
Medium (>0.1 m² and <1 m²)

Expand to show TLE details & history
Last TLE update: 6 hours ago

TLE from 6 hours ago
0 THORAD AGENA D DEB
1  4603U 70025F   26256.11474830  .00000673  00000-0  60402-3 0  9997
2  4603  99.5083   3.2432 0019822  20.4608 102.4036 13.87926083805001
Epoch: 2026-09-13T02:45Z
TLE epoch observation values (Epoch: 2026-09-13T02:45:14.253Z)
Latitude
55.82371°
Longitude
164.02462°
Altitude
948.268 km
Speed
7.381 km/s
True Right ascension
13h 09m 47s
True Declination
55° 40' 04"
Sunlit
Object was in daylight at epoch
Visualization orbit readout
Latitude
Unknown
Longitude
Unknown
Altitude
Unknown
Speed
Unknown
Apparent Right ascension
Unknown
Apparent Declination
Unknown
Sunlit
N/A
Visualization observer readout
Local Sidereal Time
01:27:50
Azimuth
Unknown
Elevation
Unknown
Doppler factor
Unknown
Orbital elements
Apogee altitude
947.641 km
Perigee altitude
918.656 km
Semi-major axis
7,311.286 km
Eccentricity
0.00198
Inclination
99.5083°
RAAN
3.2432°
Arg. of periapsis
20.4608°
True anomaly
102.62532°
Mean anomaly
102.4036°
Eccentric anomaly
102.51447°
Mean motion
3.47178 °/min
Orbital period
103.69 mins
BSTAR
0.00060402
Loading maneuver chart data...
Computing Atmospheric mass density...

Documentation

Showing up to 5 results
|